Content
SEND FEEDBACK

Daily
Averages
Monthly
Summary
United States of America

LINDSEY, WISCONSIN


Home > North America > United States > Wisconsin
Elevation: 1540 feet     Latitude: 44 33N     Longitude: 090 18W

WEATHER
 
SELECT A DAY
Number of Records: 204,582;   Date Range: 7/1/96 - 11/21/14
 
SHARE

PRINT THIS DATA

[ ← Previous Day ]
WEATHER ALMANAC - JULY 30, 2014
[ Next Day → ]
[ °C ]   °F
Weather ElementAverageHighLow
Temperature63.3 °F73.9 °F (9:54 am)53.1 °F (10:54 pm)
Dewpoint54.7 °F60.1 °F (7:54 pm)51.1 °F (10:54 am)
Humidity75.9 %96 % (2:54 am)45 % (11:54 am)
Barometer30.04 in30.08 in (1:54 am)30.00 in (9:54 pm)
Wind Speed5.9 mph15 mph (11:54 am)
Wind Gust21.9 mph (2:54 pm)
Weather ElementAverage
Visibility8 mi
Wind DirectionWSW (242.1 °)

Weather ElementTotal
Precipitation0.13 in
Heating Degree Days1.5 (Base 65)
Growing Degree Days13.5 (Base 50)
Averaged from 29 records on July 30, 2014
WEATHER CONDITIONS BREAKOUT
WIND DIRECTION BREAKOUT
WEATHER BY HOUR - JULY 30, 2014
[ °C ]   °F
Local TimeTemperatureDewpointHumidityBarometerVisibilityWind DirectionWind SpeedGust SpeedPrecipitationEventsConditions
12:54 AM57.9 °F55.0 °F90 %30.02 in9.0 miCalmMostly Cloudy
1:54 AM55.9 °F54.0 °F93 %30.02 in8.0 miWNW (300°)4.6 mphPartly Cloudy
2:54 AM55.0 °F54.0 °F96 %30.03 in7.0 miNW (310°)5.8 mphClear
3:54 AM54.0 °F52.0 °F93 %30.04 in5.0 miNNW (330°)5.8 mphClear
4:30 AM53.1 °F52.0 °F96 %30.05 in1.8 miCalmClear
4:41 AM53.1 °F51.1 °F93 %30.05 in3.0 miNNW (340°)4.6 mphClear
4:54 AM53.1 °F51.1 °F93 %30.06 in4.0 miNNW (330°)5.8 mphClear
5:54 AM53.1 °F51.1 °F93 %30.06 in4.0 miNorth (350°)4.6 mphClear
6:54 AM57.0 °F54.0 °F89 %30.06 in9.0 miNorth (360°)3.5 mphClear
7:54 AM60.1 °F55.0 °F83 %30.07 in10.0 miNNE (30°)5.8 mphClear
8:54 AM63.0 °F55.0 °F75 %30.08 in10.0 miCalmClear
9:54 AM66.0 °F55.0 °F68 %30.08 in10.0 miCalmClear
10:54 AM66.9 °F54.0 °F63 %30.08 in10.0 miNW (320°)5.8 mphClear
11:54 AM71.1 °F52.0 °F51 %30.08 in10.0 miNNW (330°)10.4 mphClear
12:54 PM72.0 °F52.0 °F49 %30.06 in10.0 miNNW (330°)8.1 mphMostly Cloudy
1:54 PM73.9 °F51.1 °F45 %30.05 in10.0 miNNW (340°)10.4 mphPartly Cloudy
2:54 PM73.0 °F51.1 °F46 %30.04 in10.0 miWest (280°)6.9 mphClear
3:54 PM73.9 °F51.1 °F45 %30.03 in10.0 miWNW (300°)9.2 mphClear
4:54 PM73.0 °F53.1 °F49 %30.03 in10.0 miWest (280°)10.4 mphClear
5:54 PM71.1 °F55.0 °F57 %30.02 in10.0 miWest (270°)6.9 mphClear
6:54 PM70.0 °F57.0 °F63 %30.01 in10.0 miWest (260°)5.8 mphClear
7:54 PM66.9 °F57.9 °F73 %30.00 in10.0 miWSW (240°)4.6 mphPartly Cloudy
8:28 PM64.9 °F59.0 °F81 %30.01 in2.5 miWest (270°)6.9 mph0.03 inRainLight Rain
8:36 PM64.0 °F59.0 °F84 %30.01 in10.0 miWest (270°)6.9 mph0.03 inPartly Cloudy
8:54 PM64.0 °F59.0 °F84 %30.01 in10.0 miWNW (290°)5.8 mph0.03 inMostly Cloudy
9:42 PM64.9 °F60.1 °F84 %30.02 in6.0 miWNW (300°)15.0 mph21.9 mph0.00 inRain-ThunderstormLight Rain
10:18 PM62.1 °F57.9 °F86 %30.01 in9.0 miWest (280°)8.1 mph0.00 inOvercast
10:54 PM61.0 °F57.9 °F90 %30.02 in4.0 miWest (270°)5.8 mph0.03 inRainLight Rain
11:54 PM62.1 °F59.0 °F90 %30.02 in9.0 miNE (40°)4.6 mph0.01 inOvercast
Hourly data recorded from KMFI, located miles away from Lindsey, Wisconsin







STORIES FROM OUR PARTNERS